| time (UTC) | temp F | wind direction | speed MPH | gust MPH | rain 1hr in | rain 24hr in | rain mn in | humidity % | barometer mb |
| 20260505125025 | 55 | 169 | 3.0 | 9.0 | 0.00 | 0.00 | 0.00 | 64 | 1009.8 |
| 20260505124546 | 55 | 173 | 3.0 | 13.0 | 0.00 | 0.00 | 0.00 | 63 | 1009.7 |
| 20260505124026 | 55 | 194 | 5.0 | 13.0 | 0.00 | 0.00 | 0.00 | 63 | 1009.6 |
| 20260505123524 | 55 | 175 | 5.0 | 12.0 | 0.00 | 0.00 | 0.00 | 63 | 1009.5 |
| 20260505123044 | 54 | 190 | 5.0 | 12.0 | 0.00 | 0.00 | 0.00 | 64 | 1009.4 |
| 20260505122524 | 54 | 168 | 3.0 | 12.0 | 0.00 | 0.00 | 0.00 | 65 | 1009.3 |
| 20260505122023 | 54 | 171 | 4.0 | 13.0 | 0.00 | 0.00 | 0.00 | 65 | 1009.3 |
| 20260505121548 | 54 | 217 | 5.0 | 13.0 | 0.00 | 0.00 | 0.00 | 66 | 1009.4 |
| 20260505121025 | 54 | 184 | 4.0 | 10.0 | 0.00 | 0.00 | 0.00 | 66 | 1009.4 |
| 20260505120524 | 54 | 171 | 6.0 | 11.0 | 0.00 | 0.00 | 0.00 | 66 | 1009.5 |
| 20260505120042 | 54 | 190 | 5.0 | 11.0 | 0.00 | 0.00 | 0.00 | 68 | 1009.5 |
| 20260505115522 | 54 | 182 | 4.0 | 14.0 | 0.00 | 0.00 | 0.00 | 68 | 1009.7 |
| 20260505115023 | 54 | 175 | 6.0 | 14.0 | 0.00 | 0.00 | 0.00 | 69 | 1009.7 |
| 20260505114540 | 54 | 202 | 4.0 | 11.0 | 0.00 | 0.00 | 0.00 | 71 | 1009.7 |
| 20260505114023 | 54 | 0 | 2.0 | 7.0 | 0.00 | 0.00 | 0.00 | 71 | 1009.7 |
| 20260505113524 | 54 | 201 | 2.0 | 7.0 | 0.00 | 0.00 | 0.00 | 71 | 1009.7 |
| 20260505113042 | 54 | 194 | 2.0 | 7.0 | 0.00 | 0.00 | 0.00 | 71 | 1009.8 |
| 20260505112521 | 54 | 0 | 1.0 | 4.0 | 0.00 | 0.00 | 0.00 | 71 | 1009.9 |
| 20260505112023 | 53 | 0 | 0.0 | 5.0 | 0.00 | 0.00 | 0.00 | 70 | 1009.8 |
| 20260505111548 | 53 | 190 | 0.0 | 5.0 | 0.00 | 0.00 | 0.00 | 71 | 1009.8 |
| 20260505111023 | 52 | 189 | 1.0 | 5.0 | 0.00 | 0.00 | 0.00 | 71 | 1009.8 |
| 20260505110522 | 52 | 0 | 0.0 | 1.0 | 0.00 | 0.00 | 0.00 | 74 | 1009.9 |
| 20260505102023 | 55 | 205 | 1.0 | 6.0 | 0.00 | 0.00 | 0.00 | 61 | 1009.8 |
| 20260505101554 | 55 | 0 | 0.0 | 1.0 | 0.00 | 0.00 | 0.00 | 63 | 1009.7 |
| 20260505101023 | 55 | 0 | 0.0 | 6.0 | 0.00 | 0.00 | 0.00 | 63 | 1009.7 |
| 20260505100524 | 55 | 0 | 0.0 | 6.0 | 0.00 | 0.00 | 0.00 | 63 | 1009.7 |
| 20260505100047 | 55 | 189 | 1.0 | 6.0 | 0.00 | 0.00 | 0.00 | 62 | 1009.7 |
| 20260505095524 | 55 | 190 | 1.0 | 5.0 | 0.00 | 0.00 | 0.00 | 62 | 1009.7 |
| 20260505095023 | 55 | 0 | 0.0 | 5.0 | 0.00 | 0.00 | 0.00 | 61 | 1009.9 |
| 20260505094552 | 56 | 180 | 0.0 | 7.0 | 0.00 | 0.00 | 0.00 | 62 | 1009.9 |
| 20260505094024 | 56 | 178 | 0.0 | 7.0 | 0.00 | 0.00 | 0.00 | 62 | 1009.8 |
| 20260505093525 | 56 | 190 | 3.0 | 9.0 | 0.00 | 0.00 | 0.00 | 62 | 1009.7 |
| 20260505093051 | 56 | 0 | 4.0 | 9.0 | 0.00 | 0.00 | 0.00 | 60 | 1009.8 |
| 20260505092525 | 56 | 181 | 2.0 | 10.0 | 0.00 | 0.00 | 0.00 | 60 | 1009.9 |
| 20260505092025 | 56 | 181 | 2.0 | 10.0 | 0.00 | 0.00 | 0.00 | 61 | 1009.7 |
| 20260505091540 | 56 | 184 | 3.0 | 13.0 | 0.00 | 0.00 | 0.00 | 61 | 1009.8 |
| 20260505091024 | 56 | 193 | 5.0 | 13.0 | 0.00 | 0.00 | 0.00 | 61 | 1009.8 |
| 20260505090524 | 56 | 175 | 3.0 | 7.0 | 0.00 | 0.00 | 0.00 | 61 | 1009.8 |
| 20260505090039 | 56 | 185 | 2.0 | 8.0 | 0.00 | 0.00 | 0.00 | 61 | 1009.8 |
| 20260505085528 | 56 | 190 | 3.0 | 9.0 | 0.00 | 0.00 | 0.00 | 61 | 1009.8 |
| 20260505085025 | 56 | 194 | 4.0 | 9.0 | 0.00 | 0.00 | 0.00 | 61 | 1009.9 |
| 20260505084546 | 56 | 178 | 3.0 | 7.0 | 0.00 | 0.00 | 0.00 | 62 | 1009.7 |
| 20260505084023 | 56 | 187 | 3.0 | 9.0 | 0.00 | 0.00 | 0.00 | 61 | 1009.9 |
| 20260505083524 | 56 | 189 | 3.0 | 9.0 | 0.00 | 0.00 | 0.00 | 61 | 1009.9 |
| 20260505083101 | 56 | 174 | 3.0 | 9.0 | 0.00 | 0.00 | 0.00 | 62 | 1010.0 |
| 20260505082525 | 56 | 160 | 3.0 | 11.0 | 0.00 | 0.00 | 0.00 | 62 | 1009.9 |
| 20260505082023 | 56 | 173 | 4.0 | 11.0 | 0.00 | 0.00 | 0.00 | 62 | 1010.0 |
| 20260505081544 | 56 | 178 | 3.0 | 11.0 | 0.00 | 0.00 | 0.00 | 62 | 1009.9 |
| 20260505081025 | 56 | 182 | 2.0 | 13.0 | 0.00 | 0.00 | 0.00 | 63 | 1010.0 |
| 20260505080524 | 56 | 175 | 4.0 | 16.0 | 0.00 | 0.00 | 0.00 | 63 | 1010.1 |
| 20260505080045 | 56 | 169 | 4.0 | 16.0 | 0.00 | 0.00 | 0.00 | 62 | 1009.9 |
| 20260505075524 | 56 | 198 | 5.0 | 11.0 | 0.00 | 0.00 | 0.00 | 61 | 1009.9 |
| 20260505075024 | 56 | 205 | 4.0 | 12.0 | 0.00 | 0.00 | 0.00 | 61 | 1009.9 |
| 20260505074543 | 56 | 167 | 4.0 | 18.0 | 0.00 | 0.00 | 0.00 | 60 | 1009.9 |
| 20260505074024 | 56 | 180 | 7.0 | 18.0 | 0.00 | 0.00 | 0.00 | 60 | 1009.9 |
| 20260505073524 | 56 | 185 | 6.0 | 19.0 | 0.00 | 0.00 | 0.00 | 59 | 1009.9 |
| 20260505073041 | 56 | 175 | 9.0 | 19.0 | 0.00 | 0.00 | 0.00 | 58 | 1010.0 |
| 20260505072525 | 56 | 125 | 8.0 | 17.0 | 0.00 | 0.00 | 0.00 | 58 | 1009.7 |
| 20260505072025 | 56 | 197 | 8.0 | 18.0 | 0.00 | 0.00 | 0.00 | 59 | 1009.7 |
| 20260505071539 | 56 | 188 | 9.0 | 20.0 | 0.00 | 0.00 | 0.00 | 58 | 1009.7 |
| 20260505071025 | 56 | 204 | 7.0 | 20.0 | 0.00 | 0.00 | 0.00 | 57 | 1009.7 |
| 20260505070525 | 56 | 165 | 6.0 | 16.0 | 0.00 | 0.00 | 0.00 | 56 | 1009.7 |
| 20260505070101 | 56 | 146 | 8.0 | 16.0 | 0.00 | 0.00 | 0.00 | 56 | 1009.7 |
| 20260505065525 | 56 | 180 | 10.0 | 19.0 | 0.00 | 0.00 | 0.00 | 56 | 1009.8 |
| 20260505065024 | 56 | 209 | 7.0 | 19.0 | 0.00 | 0.00 | 0.00 | 56 | 1009.9 |
| 20260505064553 | 55 | 182 | 7.0 | 18.0 | 0.00 | 0.00 | 0.00 | 57 | 1009.9 |
| 20260505064025 | 55 | 170 | 5.0 | 17.0 | 0.00 | 0.00 | 0.00 | 57 | 1010.0 |
| 20260505063524 | 55 | 149 | 8.0 | 15.0 | 0.00 | 0.00 | 0.00 | 57 | 1010.0 |
| 20260505063043 | 56 | 155 | 8.0 | 15.0 | 0.00 | 0.00 | 0.00 | 58 | 1009.9 |
| 20260505062525 | 56 | 190 | 6.0 | 13.0 | 0.00 | 0.00 | 0.00 | 58 | 1010.0 |
| 20260505062022 | 56 | 169 | 6.0 | 14.0 | 0.00 | 0.00 | 0.00 | 58 | 1010.0 |
| 20260505061553 | 56 | 171 | 7.0 | 17.0 | 0.00 | 0.00 | 0.00 | 59 | 1010.0 |
| 20260505061023 | 56 | 178 | 7.0 | 17.0 | 0.00 | 0.00 | 0.00 | 59 | 1010.1 |
| 20260505060524 | 56 | 205 | 8.0 | 19.0 | 0.00 | 0.00 | 0.00 | 59 | 1010.1 |
| 20260505060044 | 56 | 192 | 10.0 | 21.0 | 0.00 | 0.00 | 0.00 | 59 | 1010.0 |
| 20260505055523 | 56 | 189 | 7.0 | 21.0 | 0.00 | 0.00 | 0.00 | 60 | 1010.0 |
| 20260505055022 | 56 | 178 | 9.0 | 18.0 | 0.00 | 0.00 | 0.00 | 59 | 1010.2 |
| 20260505054551 | 56 | 177 | 7.0 | 15.0 | 0.00 | 0.00 | 0.00 | 60 | 1010.3 |
| 20260505054022 | 57 | 172 | 5.0 | 20.0 | 0.00 | 0.00 | 0.00 | 60 | 1010.4 |
| 20260505053523 | 57 | 175 | 10.0 | 20.0 | 0.00 | 0.00 | 0.00 | 59 | 1010.1 |
| 20260505053046 | 57 | 171 | 8.0 | 21.0 | 0.00 | 0.00 | 0.00 | 59 | 1009.9 |
| 20260505052523 | 57 | 173 | 10.0 | 25.0 | 0.00 | 0.00 | 0.00 | 59 | 1009.9 |
| 20260505052025 | 57 | 186 | 10.0 | 25.0 | 0.00 | 0.00 | 0.00 | 58 | 1009.9 |
| 20260505051543 | 57 | 173 | 9.0 | 22.0 | 0.00 | 0.00 | 0.00 | 58 | 1009.9 |
| 20260505051024 | 57 | 188 | 8.0 | 22.0 | 0.00 | 0.00 | 0.00 | 59 | 1009.8 |
| 20260505050523 | 58 | 174 | 10.0 | 22.0 | 0.00 | 0.00 | 0.00 | 58 | 1009.7 |
| 20260505041544 | 62 | 176 | 6.0 | 16.0 | 0.00 | 0.00 | 0.00 | 43 | 1008.8 |
| 20260505041022 | 62 | 179 | 9.0 | 16.0 | 0.00 | 0.00 | 0.00 | 42 | 1008.8 |
| 20260505040526 | 62 | 170 | 5.0 | 13.0 | 0.00 | 0.00 | 0.00 | 42 | 1008.8 |
| 20260505040058 | 62 | 186 | 5.0 | 14.0 | 0.00 | 0.00 | 0.00 | 43 | 1008.8 |
| 20260505035523 | 61 | 223 | 5.0 | 14.0 | 0.00 | 0.00 | 0.00 | 43 | 1008.7 |
| 20260505035021 | 61 | 180 | 4.0 | 8.0 | 0.00 | 0.00 | 0.00 | 44 | 1008.6 |
| 20260505034543 | 61 | 195 | 1.0 | 10.0 | 0.00 | 0.00 | 0.00 | 45 | 1008.5 |
| 20260505034023 | 62 | 182 | 4.0 | 10.0 | 0.00 | 0.00 | 0.00 | 45 | 1008.4 |
| 20260505033522 | 62 | 196 | 3.0 | 13.0 | 0.00 | 0.00 | 0.00 | 46 | 1008.5 |
| 20260505033036 | 62 | 192 | 6.0 | 13.0 | 0.00 | 0.00 | 0.00 | 46 | 1008.4 |
| 20260505032525 | 62 | 189 | 5.0 | 11.0 | 0.00 | 0.00 | 0.00 | 45 | 1008.4 |
| 20260505032024 | 62 | 201 | 5.0 | 14.0 | 0.00 | 0.00 | 0.00 | 44 | 1008.3 |
| 20260505031551 | 63 | 178 | 4.0 | 15.0 | 0.00 | 0.00 | 0.00 | 43 | 1008.2 |
| 20260505031023 | 63 | 192 | 6.0 | 15.0 | 0.00 | 0.00 | 0.00 | 42 | 1008.1 |
| 20260505030525 | 63 | 182 | 8.0 | 14.0 | 0.00 | 0.00 | 0.00 | 42 | 1008.1 |
| 20260505030044 | 63 | 198 | 4.0 | 10.0 | 0.00 | 0.00 | 0.00 | 42 | 1008.0 |
| 20260505025528 | 63 | 196 | 3.0 | 16.0 | 0.00 | 0.00 | 0.00 | 42 | 1008.1 |
| 20260505025028 | 64 | 169 | 6.0 | 16.0 | 0.00 | 0.00 | 0.00 | 42 | 1008.0 |
| 20260505024541 | 64 | 206 | 6.0 | 12.0 | 0.00 | 0.00 | 0.00 | 43 | 1008.0 |
| 20260505024023 | 64 | 198 | 5.0 | 12.0 | 0.00 | 0.00 | 0.00 | 42 | 1007.9 |
| 20260505023523 | 64 | 178 | 5.0 | 19.0 | 0.00 | 0.00 | 0.00 | 42 | 1007.8 |
| 20260505023041 | 64 | 186 | 6.0 | 19.0 | 0.00 | 0.00 | 0.00 | 41 | 1007.8 |
| 20260505022525 | 65 | 157 | 5.0 | 14.0 | 0.00 | 0.00 | 0.00 | 39 | 1007.7 |
| 20260505022027 | 65 | 163 | 5.0 | 18.0 | 0.00 | 0.00 | 0.00 | 39 | 1007.8 |
| 20260505021540 | 65 | 166 | 6.0 | 18.0 | 0.00 | 0.00 | 0.00 | 38 | 1007.8 |
| 20260505021028 | 65 | 214 | 8.0 | 18.0 | 0.00 | 0.00 | 0.00 | 38 | 1007.7 |
| 20260505020523 | 65 | 173 | 9.0 | 18.0 | 0.00 | 0.00 | 0.00 | 38 | 1007.7 |
| 20260505020042 | 65 | 150 | 7.0 | 19.0 | 0.00 | 0.00 | 0.00 | 39 | 1007.8 |
| 20260505015523 | 65 | 171 | 8.0 | 19.0 | 0.00 | 0.00 | 0.00 | 38 | 1007.9 |
| 20260505015024 | 66 | 160 | 8.0 | 16.0 | 0.00 | 0.00 | 0.00 | 38 | 1007.9 |
| 20260505014546 | 66 | 157 | 5.0 | 17.0 | 0.00 | 0.00 | 0.00 | 37 | 1007.7 |
| 20260505014026 | 67 | 168 | 8.0 | 17.0 | 0.00 | 0.00 | 0.00 | 36 | 1007.8 |
| 20260505013523 | 67 | 184 | 2.0 | 5.0 | 0.00 | 0.00 | 0.00 | 33 | 1007.8 |
| 20260505013041 | 68 | 177 | 1.0 | 5.0 | 0.00 | 0.00 | 0.00 | 33 | 1007.5 |
| 20260505012526 | 68 | 177 | 1.0 | 4.0 | 0.00 | 0.00 | 0.00 | 33 | 1007.5 |
| 20260505012024 | 68 | 177 | 0.0 | 3.0 | 0.00 | 0.00 | 0.00 | 33 | 1007.5 |
| 20260505011545 | 68 | 0 | 1.0 | 4.0 | 0.00 | 0.00 | 0.00 | 32 | 1007.5 |
| 20260505011023 | 68 | 0 | 1.0 | 4.0 | 0.00 | 0.00 | 0.00 | 32 | 1007.6 |
| 20260505010523 | 68 | 0 | 0.0 | 4.0 | 0.00 | 0.00 | 0.00 | 33 | 1007.7 |
| 20260505010055 | 68 | 0 | 0.0 | 6.0 | 0.00 | 0.00 | 0.00 | 33 | 1007.6 |
| 20260505005525 | 69 | 180 | 1.0 | 6.0 | 0.00 | 0.00 | 0.00 | 32 | 1007.8 |
| 20260505005024 | 69 | 51 | 0.0 | 3.0 | 0.00 | 0.00 | 0.00 | 32 | 1007.8 |
| 20260505004547 | 69 | 0 | 1.0 | 3.0 | 0.00 | 0.00 | 0.00 | 35 | 1007.8 |
| 20260505004022 | 68 | 0 | 0.0 | 4.0 | 0.00 | 0.00 | 0.00 | 35 | 1007.9 |
| 20260505003524 | 68 | 0 | 0.0 | 6.0 | 0.00 | 0.00 | 0.00 | 34 | 1007.8 |
| 20260505003044 | 68 | 0 | 1.0 | 7.0 | 0.00 | 0.00 | 0.00 | 35 | 1007.9 |
| 20260505002526 | 68 | 14 | 2.0 | 7.0 | 0.00 | 0.00 | 0.00 | 34 | 1007.9 |
| 20260505002024 | 68 | 126 | 0.0 | 7.0 | 0.00 | 0.00 | 0.00 | 34 | 1007.9 |
| 20260505001543 | 68 | 0 | 0.0 | 6.0 | 0.00 | 0.00 | 0.00 | 34 | 1007.9 |
| 20260505001023 | 67 | 0 | 1.0 | 9.0 | 0.00 | 0.00 | 0.00 | 34 | 1008.0 |
| 20260505000523 | 67 | 61 | 2.0 | 9.0 | 0.00 | 0.00 | 0.00 | 34 | 1008.0 |
| 20260505000054 | 67 | 106 | 3.0 | 8.0 | 0.00 | 0.00 | 0.00 | 34 | 1008.0 |
| 20260504235524 | 68 | 76 | 3.0 | 7.0 | 0.00 | 0.00 | 0.00 | 34 | 1008.0 |
| 20260504235024 | 67 | 59 | 1.0 | 5.0 | 0.00 | 0.00 | 0.00 | 35 | 1008.1 |
| 20260504234540 | 67 | 59 | 1.0 | 5.0 | 0.00 | 0.00 | 0.00 | 35 | 1008.3 |
| 20260504234025 | 67 | 0 | 0.0 | 9.0 | 0.00 | 0.00 | 0.00 | 35 | 1008.3 |
| 20260504233523 | 67 | 142 | 2.0 | 9.0 | 0.00 | 0.00 | 0.00 | 35 | 1008.5 |
| 20260504233047 | 68 | 153 | 2.0 | 8.0 | 0.00 | 0.00 | 0.00 | 35 | 1008.7 |
| 20260504232524 | 68 | 138 | 3.0 | 8.0 | 0.00 | 0.00 | 0.00 | 34 | 1008.6 |
| 20260504232024 | 68 | 134 | 3.0 | 10.0 | 0.00 | 0.00 | 0.00 | 34 | 1008.7 |
| 20260504231545 | 69 | 72 | 4.0 | 13.0 | 0.00 | 0.00 | 0.00 | 33 | 1008.6 |
| 20260504231024 | 69 | 68 | 4.0 | 15.0 | 0.00 | 0.00 | 0.00 | 33 | 1008.6 |
| 20260504230524 | 69 | 31 | 5.0 | 15.0 | 0.00 | 0.00 | 0.00 | 32 | 1008.6 |
| 20260504230046 | 69 | 39 | 5.0 | 12.0 | 0.00 | 0.00 | 0.00 | 32 | 1008.6 |
| 20260504225526 | 69 | 56 | 4.0 | 14.0 | 0.00 | 0.00 | 0.00 | 34 | 1008.4 |
| 20260504225022 | 69 | 92 | 5.0 | 16.0 | 0.00 | 0.00 | 0.00 | 34 | 1008.5 |
| 20260504224544 | 69 | 100 | 6.0 | 17.0 | 0.00 | 0.00 | 0.00 | 33 | 1008.3 |
| 20260504224023 | 70 | 91 | 8.0 | 17.0 | 0.00 | 0.00 | 0.00 | 32 | 1008.5 |
| 20260504223523 | 71 | 52 | 4.0 | 13.0 | 0.00 | 0.00 | 0.00 | 32 | 1008.5 |
| 20260504223043 | 71 | 121 | 3.0 | 9.0 | 0.00 | 0.00 | 0.00 | 31 | 1008.6 |
| 20260504222523 | 71 | 51 | 4.0 | 9.0 | 0.00 | 0.00 | 0.00 | 31 | 1008.6 |
| 20260504222023 | 71 | 28 | 1.0 | 9.0 | 0.00 | 0.00 | 0.00 | 29 | 1008.6 |
| 20260504221542 | 71 | 298 | 4.0 | 9.0 | 0.00 | 0.00 | 0.00 | 28 | 1008.5 |
| 20260504221024 | 71 | 276 | 1.0 | 6.0 | 0.00 | 0.00 | 0.00 | 30 | 1008.4 |
| 20260504220523 | 71 | 290 | 2.0 | 8.0 | 0.00 | 0.00 | 0.00 | 30 | 1008.5 |
| 20260504220056 | 70 | 187 | 1.0 | 8.0 | 0.00 | 0.00 | 0.00 | 31 | 1008.6 |
| 20260504215523 | 70 | 286 | 2.0 | 8.0 | 0.00 | 0.00 | 0.00 | 31 | 1008.6 |
| 20260504215026 | 69 | 219 | 2.0 | 7.0 | 0.00 | 0.00 | 0.00 | 33 | 1008.7 |
| 20260504214544 | 68 | 202 | 1.0 | 6.0 | 0.00 | 0.00 | 0.00 | 34 | 1008.6 |
| 20260504214023 | 68 | 211 | 1.0 | 10.0 | 0.00 | 0.00 | 0.00 | 35 | 1009.0 |
| 20260504213524 | 67 | 220 | 3.0 | 10.0 | 0.00 | 0.00 | 0.00 | 36 | 1009.0 |
| 20260504213059 | 67 | 281 | 3.0 | 9.0 | 0.00 | 0.00 | 0.00 | 36 | 1008.9 |
| 20260504212524 | 67 | 165 | 3.0 | 16.0 | 0.00 | 0.00 | 0.00 | 35 | 1009.0 |
| 20260504212025 | 68 | 265 | 3.0 | 16.0 | 0.00 | 0.00 | 0.00 | 34 | 1008.9 |
| 20260504211544 | 69 | 278 | 3.0 | 10.0 | 0.00 | 0.00 | 0.00 | 34 | 1008.9 |
| 20260504211023 | 69 | 238 | 2.0 | 10.0 | 0.00 | 0.00 | 0.00 | 30 | 1008.9 |
| 20260504210523 | 69 | 257 | 5.0 | 13.0 | 0.00 | 0.00 | 0.00 | 30 | 1008.9 |
| 20260504210040 | 69 | 269 | 6.0 | 13.0 | 0.00 | 0.00 | 0.00 | 30 | 1008.7 |
| 20260504205525 | 69 | 278 | 4.0 | 12.0 | 0.00 | 0.00 | 0.00 | 31 | 1008.8 |
| 20260504205026 | 70 | 290 | 5.0 | 12.0 | 0.00 | 0.00 | 0.00 | 30 | 1009.0 |
| 20260504204550 | 70 | 266 | 3.0 | 11.0 | 0.00 | 0.00 | 0.00 | 31 | 1008.9 |
| 20260504204025 | 70 | 275 | 3.0 | 14.0 | 0.00 | 0.00 | 0.00 | 31 | 1009.0 |
| 20260504203525 | 70 | 282 | 7.0 | 14.0 | 0.00 | 0.00 | 0.00 | 30 | 1009.0 |
| 20260504203048 | 71 | 283 | 6.0 | 9.0 | 0.00 | 0.00 | 0.00 | 30 | 1009.0 |
| 20260504202525 | 71 | 277 | 2.0 | 8.0 | 0.00 | 0.00 | 0.00 | 30 | 1009.1 |
| 20260504202025 | 72 | 278 | 2.0 | 8.0 | 0.00 | 0.00 | 0.00 | 30 | 1009.1 |
| 20260504201544 | 72 | 221 | 2.0 | 8.0 | 0.00 | 0.00 | 0.00 | 30 | 1009.1 |
| 20260504201024 | 72 | 291 | 0.0 | 3.0 | 0.00 | 0.00 | 0.00 | 30 | 1009.2 |
| 20260504200524 | 71 | 0 | 0.0 | 3.0 | 0.00 | 0.00 | 0.00 | 29 | 1009.1 |
| 20260504200041 | 71 | 254 | 1.0 | 4.0 | 0.00 | 0.00 | 0.00 | 28 | 1009.1 |
| 20260504195524 | 71 | 0 | 0.0 | 4.0 | 0.00 | 0.00 | 0.00 | 29 | 1009.2 |
| 20260504195024 | 71 | 180 | 1.0 | 7.0 | 0.00 | 0.00 | 0.00 | 29 | 1009.2 |
| 20260504194540 | 71 | 0 | 1.0 | 7.0 | 0.00 | 0.00 | 0.00 | 30 | 1009.2 |
| 20260504194024 | 71 | 154 | 2.0 | 6.0 | 0.00 | 0.00 | 0.00 | 29 | 1009.2 |
| 20260504193526 | 71 | 130 | 1.0 | 7.0 | 0.00 | 0.00 | 0.00 | 30 | 1009.3 |
| 20260504193052 | 71 | 0 | 1.0 | 7.0 | 0.00 | 0.00 | 0.00 | 30 | 1009.2 |
| 20260504192525 | 71 | 90 | 3.0 | 7.0 | 0.00 | 0.00 | 0.00 | 30 | 1009.3 |
| 20260504192025 | 71 | 180 | 0.0 | 5.0 | 0.00 | 0.00 | 0.00 | 29 | 1009.3 |
| 20260504191545 | 71 | 179 | 0.0 | 9.0 | 0.00 | 0.00 | 0.00 | 29 | 1009.5 |
| 20260504191025 | 71 | 173 | 2.0 | 10.0 | 0.00 | 0.00 | 0.00 | 29 | 1009.4 |
| 20260504190526 | 71 | 168 | 5.0 | 10.0 | 0.00 | 0.00 | 0.00 | 30 | 1009.5 |
| 20260504190051 | 71 | 177 | 6.0 | 12.0 | 0.00 | 0.00 | 0.00 | 29 | 1009.6 |
| 20260504185523 | 71 | 119 | 6.0 | 12.0 | 0.00 | 0.00 | 0.00 | 29 | 1009.7 |
| 20260504185026 | 71 | 169 | 6.0 | 12.0 | 0.00 | 0.00 | 0.00 | 27 | 1009.7 |
| 20260504184544 | 71 | 192 | 5.0 | 13.0 | 0.00 | 0.00 | 0.00 | 30 | 1009.7 |
| 20260504184024 | 71 | 162 | 7.0 | 13.0 | 0.00 | 0.00 | 0.00 | 29 | 1009.8 |
| 20260504183525 | 71 | 161 | 6.0 | 11.0 | 0.00 | 0.00 | 0.00 | 30 | 1009.7 |
| 20260504183055 | 71 | 166 | 4.0 | 10.0 | 0.00 | 0.00 | 0.00 | 31 | 1009.7 |
| 20260504182523 | 70 | 137 | 4.0 | 14.0 | 0.00 | 0.00 | 0.00 | 30 | 1009.9 |
| 20260504182024 | 70 | 184 | 6.0 | 14.0 | 0.00 | 0.00 | 0.00 | 32 | 1009.9 |
| 20260504181540 | 70 | 155 | 4.0 | 12.0 | 0.00 | 0.00 | 0.00 | 33 | 1010.0 |
| 20260504181025 | 70 | 188 | 5.0 | 14.0 | 0.00 | 0.00 | 0.00 | 32 | 1010.0 |
| 20260504180525 | 70 | 152 | 7.0 | 14.0 | 0.00 | 0.00 | 0.00 | 32 | 1010.1 |
| 20260504180117 | 71 | 124 | 7.0 | 13.0 | 0.00 | 0.00 | 0.00 | 32 | 1010.3 |
| 20260504175525 | 71 | 141 | 5.0 | 12.0 | 0.00 | 0.00 | 0.00 | 32 | 1010.3 |
| 20260504175024 | 70 | 170 | 6.0 | 14.0 | 0.00 | 0.00 | 0.00 | 33 | 1010.5 |
| 20260504174546 | 70 | 178 | 7.0 | 15.0 | 0.00 | 0.00 | 0.00 | 33 | 1010.4 |
| 20260504174023 | 69 | 175 | 8.0 | 15.0 | 0.00 | 0.00 | 0.00 | 33 | 1010.3 |
| 20260504173526 | 69 | 178 | 9.0 | 15.0 | 0.00 | 0.00 | 0.00 | 33 | 1010.4 |
| 20260504173046 | 69 | 125 | 6.0 | 16.0 | 0.00 | 0.00 | 0.00 | 33 | 1010.4 |
| 20260504172524 | 69 | 128 | 9.0 | 16.0 | 0.00 | 0.00 | 0.00 | 34 | 1010.4 |
| 20260504172023 | 69 | 150 | 8.0 | 16.0 | 0.00 | 0.00 | 0.00 | 34 | 1010.5 |
| 20260504171548 | 68 | 157 | 9.0 | 17.0 | 0.00 | 0.00 | 0.00 | 33 | 1010.5 |
| 20260504171028 | 69 | 168 | 7.0 | 17.0 | 0.00 | 0.00 | 0.00 | 34 | 1010.6 |
| 20260504170525 | 68 | 155 | 7.0 | 17.0 | 0.00 | 0.00 | 0.00 | 34 | 1010.7 |
| 20260504151024 | 63 | 181 | 7.0 | 13.0 | 0.00 | 0.00 | 0.00 | 45 | 1011.2 |
| 20260504150525 | 63 | 202 | 4.0 | 15.0 | 0.00 | 0.00 | 0.00 | 47 | 1011.3 |
| 20260504141024 | 61 | 178 | 4.0 | 9.0 | 0.00 | 0.00 | 0.00 | 46 | 1011.3 |
| 20260504140524 | 61 | 202 | 3.0 | 9.0 | 0.00 | 0.00 | 0.00 | 47 | 1011.2 |
| 20260504130524 | 57 | 195 | 3.0 | 8.0 | 0.00 | 0.00 | 0.00 | 52 | 1011.3 |